Погода в Новом Урюмове

Россия / Чувашская Республика     55°23′00″N   47°24′37″E
темп.,
°C
ветер,
м/с
пор.,
м/с
влажн.,
%
обл.,
%
осадки,
мм/ч
давл.,
гПа
погр.,
м
15 июня, вт
вт1500:00+16з2291100 0.0 101513
03:00+15юз119249 0.6 101511
06:00+19ю018653 0.0 101595
09:00+21ююв3481100 2.3 1015215
12:00+20ююз3584100 2.0 1015345
15:00+20ю2481100 2.0 1014299
18:00+21ю238398 0.0 101376
21:00+20ююв2279100 0.0 101313
16 июня, ср
ср1600:00+17вюв458894 0.4 101165
03:00+17вюв359165 0.5 101076
06:00+20в38885 0.0 1010211
09:00+24в34685 0.0 1009475
12:00+27в33595 0.0 1008959
15:00+28св225416 0.0 10071441
18:00+23ссз5108341 0.8 1007251
21:00+17с613935 2.3 1010447
17 июня, чт
чт1700:00+15с513940 0.0 1013417
03:00+12ссз411930 0.0 1015249
06:00+14ссз3785100 0.0 1017243
09:00+19ссз456687 0.0 1017831
12:00+21сз57520 0.0 10181628
15:00+21сз57531 0.0 10191885
18:00+19сз5106621 0.0 1019372
21:00+16ссз226933 0.0 102123
18 июня, пт
пт1800:00+12с33753 0.0 102347
03:00+11с22775 0.0 102524
06:00+14с36757 0.0 1026207
09:00+17ссв35565 0.0 1027796
12:00+19с34500 0.0 10271500
15:00+21сз23507 0.0 10271614
18:00+20з226620 0.0 1026226
21:00+15зюз337621 0.0 102737
19 июня, сб
сб1900:00+14зюз3586100 0.0 102774
03:00+13зюз37875 0.0 1028117
06:00+16зюз410815 0.0 1028285
09:00+21зюз68695 0.0 1027584
12:00+24з79620 0.0 10251330
15:00+25зсз710660 0.0 10241713
18:00+23з611740 0.0 1023733
21:00+19з413870 0.1 1023300